Flag for Russia Weather past 2 weeks in Astrakhan, Russia

Now
70 °F

Sunny.


Feels Like: 70 °F
Forecast: 46 / 74 °F
Wind: 15 mph from Southeast

Location: Astrakhan


UV Index: 3 (Moderate)

Visibility: 10 mi


Pressure: 30.09 "Hg

Humidity: 23%

Dew point: 30 °F

Location of AstrakhanLocation

Historic Weather in Astrakhan

°F

Astrakhan temperature yesterday

Maximum temperature yesterday: 68 °F (at 1:30 PM)
Minimum temperature yesterday: 43 °F (at 2:30 AM)
Average temperature yesterday: 56 °F

Past Weeks' High & Low Weather Summary

 TemperatureHumidityPressure
High70 °F (Apr 9, 2:00 PM)93% (Apr 9, 4:30 AM)30.48 "Hg (Apr 9, 4:30 AM)
Low23 °F (Apr 3, 5:30 AM)13% (Apr 15, 2:00 PM)29.71 "Hg (Apr 2, 2:00 AM)
Average45 °F55%30.07 "Hg
* Reported Apr 1 11:00 AM — Apr 16 11:30 AM, Astrakhan, Weather by CustomWeather, © 2014

Note: Actual official high and low records may vary slightly from our data, if they occured in-between our weather recording intervals... More about our weather records

Advertising

Historic Weather Conditions — Data for Previous 24 hours

 ConditionsComfort  
Time TempWeatherWind HumidityBarometerVisibility
11:30 AM
Apr 16
70 °FSunny.13 mph27%30.09 "Hg10 mi
11:00 AM68 °FSunny.10 mph30%30.09 "Hg10 mi
10:30 AM66 °FPassing clouds.10 mph30%30.09 "HgN/A
10:00 AM64 °FPassing clouds.6 mph34%30.09 "HgN/A
9:30 AM61 °FPassing clouds.3 mph39%30.09 "HgN/A
9:00 AM57 °FSunny.6 mph51%30.07 "Hg10 mi
8:30 AM55 °FPassing clouds.6 mph63%30.07 "HgN/A
8:00 AM52 °FSunny.8 mph67%30.07 "Hg10 mi
7:30 AM48 °FSunny.8 mph71%30.07 "Hg10 mi
7:00 AM45 °FSunny.8 mph76%30.07 "Hg10 mi
6:30 AM43 °FClear.6 mph76%30.07 "Hg10 mi
6:00 AM45 °FClear.8 mph71%30.07 "Hg10 mi
5:30 AM45 °FClear.10 mph71%30.07 "Hg10 mi
5:00 AM45 °FClear.10 mph71%30.07 "Hg10 mi
4:30 AM45 °FClear.10 mph71%30.07 "Hg10 mi
3:00 AM46 °FClear.8 mph66%30.07 "Hg10 mi
2:30 AM46 °FClear.6 mph62%30.07 "Hg10 mi
2:00 AM46 °FClear.8 mph66%30.09 "Hg10 mi
1:30 AM46 °FClear.6 mph62%30.09 "Hg10 mi
12:30 AM48 °FClear.6 mph58%30.09 "Hg10 mi
12:00 AM48 °FClear.8 mph58%30.12 "Hg10 mi
11:30 PM
Apr 15
48 °FClear.6 mph54%30.12 "Hg10 mi
11:00 PM50 °FClear.6 mph54%30.12 "Hg10 mi
10:30 PM50 °FClear.6 mph50%30.12 "Hg10 mi
10:00 PM52 °FClear.8 mph44%30.12 "Hg10 mi
9:30 PM52 °FClear.6 mph41%30.15 "Hg10 mi
9:00 PM52 °FClear.6 mph41%30.15 "Hg10 mi
8:30 PM54 °FSunny.6 mph38%30.15 "Hg10 mi
8:00 PM54 °FSunny.8 mph35%30.12 "Hg10 mi
7:30 PM57 °FSunny.10 mph31%30.12 "Hg10 mi
7:00 PM59 °FSunny.13 mph29%30.09 "Hg10 mi
6:30 PM61 °FSunny.13 mph23%30.09 "Hg10 mi
6:00 PM63 °FSunny.10 mph20%30.09 "Hg10 mi
5:30 PM64 °FSunny.10 mph19%30.09 "Hg10 mi
5:00 PM66 °FPassing clouds.10 mph17%30.09 "HgN/A
4:30 PM66 °FSunny.10 mph15%30.09 "Hg10 mi
4:00 PM68 °FPassing clouds.10 mph16%30.09 "HgN/A
3:30 PM66 °FSunny.13 mph15%30.09 "Hg10 mi
3:00 PM66 °FSunny.15 mph15%30.09 "Hg10 mi
2:30 PM68 °FSunny.15 mph13%30.09 "Hg10 mi
2:00 PM66 °FPassing clouds.15 mph13%30.09 "HgN/A
1:30 PM68 °FPassing clouds.13 mph14%30.09 "HgN/A
1:00 PM66 °FClear.13 mph15%30.09 "Hg4 mi
12:30 PM66 °FClear.15 mph17%30.09 "Hg4 mi
12:00 PM64 °FHaze.13 mph18%30.09 "Hg3 mi
Weather by CustomWeather, © 2014

See weather overview